Regional Weather Roundup
Issued by NWS

Home | Current Version | Previous Version | Graphics & Text | Print | Product List | Glossary On
Versions: 1 2 3 4 5 6 7 8 9 10 11 12 13 14 15 16 17 18 19 20 21 22 23 24 25 26 27 28 29 30 31 32 33 34 35 36 37 38 39 40 41 42 43 44 45 46 47 48 49 50
000
ASUS43 KTOP 260108
RWRKS

WEATHER ROUNDUP FOR KANSAS
NATIONAL WEATHER SERVICE GOODLAND KS
800 PM CDT TUE JUL 25 2017

NOTE:  "FAIR" INDICATES FEW OR NO CLOUDS BELOW 12,000 FEET WITH NO
SIGNIFICANT WEATHER AND/OR OBSTRUCTIONS TO VISIBILITY.

KSZ001>006-013>018-027>032-041>047-260200-
NORTHWEST KANSAS

CITY           SKY/WX    TMP DP  RH WIND       PRES   REMARKS
GOODLAND       MOSUNNY   88  63  43 SE22      29.94R
HAYS           CLEAR     96  67  38 S18G28    29.89F HX 100
HILL CITY      CLOUDY    97  66  36 S13G22    29.88F HX 100
RUSSELL        CLEAR     95  65  37 S18G24    29.89F HX  97
$$

KSZ061>065-074>080-084>089-260200-
SOUTHWEST KANSAS

CITY           SKY/WX    TMP DP  RH WIND       PRES   REMARKS
DODGE CITY     CLEAR     94  62  34 S18       29.95R
ELKHART          N/A     90  54  29 S12         N/A
GARDEN CITY    CLEAR     91  62  37 S12       29.94R
GREAT BEND     PTCLDY    95  67  39 S15       29.92F HX  99
LIBERAL        CLEAR     95  60  31 S17       29.95S HX  95
PRATT          CLEAR     92  63  37 S16G22    29.95S
$$

KSZ066>073-081>083-090>101-260200-
SOUTHEAST KANSAS

CITY           SKY/WX    TMP DP  RH WIND       PRES   REMARKS
CHANUTE        CLEAR     91  69  48 SE9       30.00F HX  96
COFFEYVILLE    CLEAR     90  71  53 S8        30.00S HX  96
HUTCHINSON     CLEAR     92  67  43 SE14      29.93S HX  95
MEDICINE LODGE   N/A     96  65  35 S12G22    29.92S HX  98
NEWTON         CLEAR     88  69  53 SE9       29.97F
PARSONS        CLEAR     89  70  53 S5        30.01F
WICHITA INTL   PTCLDY    92  68  45 SE18      29.94F HX  96
WICHITA JABRA  CLEAR     91  66  43 SE13      29.95F
WICHITA MCCONL CLEAR     92  65  39 S14       29.96S
WINFIELD       CLEAR     92  68  45 SE13      29.97F HX  96
$$

KSZ007>012-019>026-033>040-048>060-102>105-260200-
NORTHEAST KANSAS

CITY           SKY/WX    TMP DP  RH WIND       PRES   REMARKS
CONCORDIA      CLEAR     89  67  47 SE12      29.91F
EMPORIA        CLEAR     89  70  53 S12       29.97F
LAWRENCE       CLEAR     89  75  63 SE7       29.97F HX  99
MANHATTAN      CLEAR     92  72  51 SE15G22   29.93S HX  99
MARYSVILLE     CLEAR     90  70  51 SE10G18   29.95R HX  95
OLATHE IND     CLEAR     88  73  61 SE7       30.00F HX  95
OLATHE EXE     CLEAR     86  75  69 S6        30.01S HX  95
SALINA         CLEAR     95  66  38 SE20G25   29.91F HX  98
TOPEKA BILLARD CLEAR     88  75  65 SE8       29.96S HX  97
TOPEKA FORBES  CLEAR     90  74  59 SE9       29.97F HX  99
$$



USA.gov is the U.S. government's official web portal to all federal, state and local government web resources and services.